User: anonymous   Login
Location: Unspecified
(0.0000°N, 0.0000°E)
Time: 11:12:40
(UTC+00:00)
Language:

SJ-7 - Orbit

View from above orbital plane
View from above orbital plane
View from above satellite
View from above satellite

Ground track
Ground track

The orbit data is extracted from the following two-line orbital elements,

1 28737U 05024A   18020.17887381  .00000856  00000-0  81690-4 0  9999
2 28737  97.6602  27.1982 0032749 311.1279  48.7119 14.95561240687386
Epoch (UTC): 20 January 2018 04:17:34
Eccentricity: 0.0032749
inclination: 97.6602°
perigee height: 558 km
apogee height: 603 km
right ascension of ascending node: 27.1982°
argument of perigee: 311.1279°
revolutions per day: 14.95561240
mean anomaly at epoch: 48.7119°
orbit number at epoch: 68738

The dashed part of the orbit path shows where the satellite is in the earth's shadow,  

DLR